Pittsfield, MA

9:08 PM EST on November 14, 2019 (GMT -0500)
Pittsfield Municipal

Weather History for KPSF - July, 2019

Change the Weather History Date:

Wednesday, July 17, 2019

  Actual Average Record
Temperature  
Mean Temperature 77 °F 68 °F  
Max Temperature 86 °F 79 °F 93 °F (1927)
Min Temperature 68 °F 57 °F 41 °F (1954)
Degree Days  
Heating Degree Days 0 1  
Month to date heating degree days 0 17  
Since 1 June heating degree days 67 118  
Since 1 July heating degree days 0 17  
Cooling Degree Days 12 3  
Month to date cooling degree days 114 59  
Year to date cooling degree days 171 128  
Since 1 June cooling degree days 165 115  
Growing Degree Days 27 (Base 50)    
Moisture  
Dew Point 68 °F    
Average Humidity 81    
Maximum Humidity 97    
Minimum Humidity 65    
Precipitation  
Precipitation 0.95 in 0.12 in 0.95 in (2019)
Month to date precipitation 1.30 2.08  
Year to date precipitation 23.89 23.52  
Sea Level Pressure  
Sea Level Pressure 29.90 in    
Wind  
Wind Speed 4 mph (West)    
Max Wind Speed 25 mph    
Max Gust Speed 33 mph    
Visibility 8 miles    
Events Fog , Rain , Thunderstorm    
T = Trace of Precipitation, MM = Missing Value Source: NWS Daily Summary

Daily Weather History Graph

Daily Weather History Graph

Search for Another Location

Airport or City:

Astronomy

Jul. 17, 2019 Rise Set
Actual Time 5:30 AM EDT 8:27 PM EDT
Civil Twilight 4:57 AM EDT 9:00 PM EDT
Nautical Twilight 4:14 AM EDT 9:42 PM EDT
Astronomical Twilight 3:25 AM EDT 10:32 PM EDT
Moon 9:13 PM EDT (7/17) 6:00 AM EDT (7/17)
Length of Visible Light 16h 03m
Length of Day
14h 56m
Waxing Gibbous, 99% of the Moon is Illuminated
Jul 17
Waxing Gibbous
Jul 24
Last Quarter
Jul 31
New
Aug 7
First Quarter
Aug 15
Full

Hourly Weather History & Observations

Time (EDT) Temp. Heat Index Dew Point Humidity Pressure Visibility Wind Dir Wind Speed Gust Speed Precip Events Conditions
12:54 AM 75.0 °F - 64.9 °F 71% 29.90 in 10.0 mi WSW 8.1 mph - N/A   Clear
1:54 AM 73.9 °F - 64.9 °F 73% 29.90 in 10.0 mi SW 4.6 mph - N/A   Clear
2:54 AM 73.0 °F - 64.9 °F 76% 29.88 in 10.0 mi WSW 4.6 mph - N/A   Partly Cloudy
3:54 AM 72.0 °F - 64.9 °F 78% 29.88 in 10.0 mi Calm Calm - N/A   Overcast
4:54 AM 71.1 °F - 64.9 °F 81% 29.88 in 10.0 mi Calm Calm - N/A   Mostly Cloudy
5:54 AM 70.0 °F - 66.9 °F 90% 29.88 in 7.0 mi ESE 3.5 mph - 0.07 in Rain Light Rain
6:54 AM 70.0 °F - 66.9 °F 90% 29.88 in 9.0 mi Calm Calm - 0.00 in   Partly Cloudy
7:54 AM 72.0 °F - 68.0 °F 87% 29.89 in 7.0 mi Calm Calm - 0.00 in Rain Light Rain
8:31 AM 73.0 °F - 69.1 °F 87% 29.98 in 10.0 mi Calm Calm - 0.00 in   Mostly Cloudy
8:54 AM 73.0 °F - 70.0 °F 90% 29.90 in 10.0 mi Calm Calm - 0.00 in   Overcast
9:54 AM 78.1 °F - 70.0 °F 76% 29.89 in 10.0 mi Variable 4.6 mph - N/A   Scattered Clouds
10:54 AM 80.1 °F 82.7 °F 68.0 °F 67% 29.88 in 10.0 mi West 9.2 mph - N/A   Partly Cloudy
11:54 AM 80.1 °F 82.7 °F 68.0 °F 67% 29.86 in 10.0 mi West 6.9 mph - N/A   Scattered Clouds
12:54 PM 82.0 °F 85.5 °F 69.1 °F 65% 29.86 in 10.0 mi SSW 5.8 mph - N/A   Overcast
1:54 PM 82.9 °F 86.5 °F 69.1 °F 63% 29.83 in 10.0 mi Variable 3.5 mph - N/A   Mostly Cloudy
2:12 PM 84.0 °F 87.8 °F 69.1 °F 61% 29.91 in 10.0 mi North 3.5 mph - N/A Thunderstorm Overcast
2:38 PM 73.9 °F - 70.0 °F 87% 29.92 in 0.2 mi West 11.5 mph 33.4 mph 0.30 in Fog , Rain , Thunderstorm Heavy Thunderstorms and Rain
2:49 PM 73.4 °F - 69.8 °F 88% 29.91 in 1.2 mi SSE 8.1 mph - 0.39 in Rain , Thunderstorm Light Thunderstorms and Rain
2:52 PM 73.4 °F - 69.8 °F 88% 29.90 in 3.0 mi Variable 3.5 mph - 0.39 in Rain , Thunderstorm Light Thunderstorms and Rain
2:54 PM 73.9 °F - 71.1 °F 91% 29.83 in 6.0 mi WNW 4.6 mph - 0.39 in Rain , Thunderstorm Light Thunderstorms and Rain
3:16 PM 73.9 °F - 70.0 °F 87% 29.93 in 4.0 mi South 4.6 mph - 0.02 in Rain , Thunderstorm Light Rain
3:30 PM 75.0 °F - 71.1 °F 87% 29.93 in 10.0 mi SW 10.4 mph - 0.02 in Thunderstorm Overcast
3:40 PM 73.9 °F - 69.1 °F 85% 29.93 in 10.0 mi SW 8.1 mph - 0.02 in Thunderstorm Thunderstorm
3:51 PM 73.4 °F - 69.8 °F 88% 29.96 in 1.5 mi NW 12.7 mph - 0.13 in Rain , Thunderstorm Heavy Thunderstorms and Rain
3:54 PM 73.0 °F - 69.1 °F 87% 29.89 in 0.5 mi NW 19.6 mph 33.4 mph 0.35 in Fog , Rain , Thunderstorm Heavy Thunderstorms and Rain
3:58 PM 71.1 °F - 68.0 °F 90% 29.95 in 0.2 mi NNW 11.5 mph 33.4 mph 0.10 in Fog , Rain , Thunderstorm Heavy Thunderstorms and Rain
4:01 PM 70.0 °F - 66.9 °F 90% 29.94 in 0.5 mi WNW 9.2 mph 33.4 mph 0.11 in Fog , Rain , Thunderstorm Thunderstorms and Rain
4:05 PM 71.1 °F - 66.9 °F 87% 29.95 in 1.2 mi WNW 11.5 mph 25.3 mph 0.11 in Rain , Thunderstorm Light Rain
4:07 PM 71.1 °F - 66.9 °F 87% 29.95 in 4.0 mi West 10.4 mph - 0.11 in Rain , Thunderstorm Light Rain
4:15 PM 71.1 °F - 66.9 °F 87% 29.94 in 5.0 mi West 8.1 mph - 0.12 in Rain Light Rain
4:54 PM 73.9 °F - 69.1 °F 85% 29.84 in 10.0 mi South 5.8 mph - 0.14 in   Scattered Clouds
5:54 PM 75.0 °F - 69.1 °F 82% 29.80 in 10.0 mi WSW 8.1 mph - N/A   Partly Cloudy
6:54 PM 73.9 °F - 69.1 °F 85% 29.86 in 10.0 mi West 5.8 mph - N/A   Overcast
7:16 PM 73.0 °F - 68.0 °F 84% 29.95 in 10.0 mi WNW 4.6 mph - N/A   Overcast
7:54 PM 72.0 °F - 66.9 °F 84% 29.86 in 10.0 mi West 5.8 mph - 0.00 in   Mostly Cloudy
8:54 PM 70.0 °F - 66.9 °F 90% 29.86 in 10.0 mi SSW 3.5 mph - N/A   Mostly Cloudy
9:54 PM 70.0 °F - 68.0 °F 93% 29.87 in 10.0 mi Calm Calm - N/A   Mostly Cloudy
10:28 PM 70.0 °F - 66.9 °F 90% 29.95 in 10.0 mi Calm Calm - N/A   Scattered Clouds
10:54 PM 70.0 °F - 68.0 °F 93% 29.87 in 10.0 mi Calm Calm - N/A   Overcast
11:54 PM 70.0 °F - 68.0 °F 93% 29.88 in 10.0 mi Calm Calm - N/A   Overcast